Location: Voyageurs National Park
(48.5020°N, 92.9292°W)
Time: 08:06:26
(UTC-05:00)

Cosmos 371 Rocket - Pass Details

Date: 19 January 2018
Orbit: 685 x 698 km, 74.0° (Epoch: 20 May)

Event Time Altitude Azimuth Distance (km) Brightness Sun altitude
Exits shadow 05:18:06 50° 2° (N) 886 3.7 -25.6°
Maximum altitude 05:19:14 70° 65° (ENE) 744 3.5 -25.4°
Drops below altitude 10° 05:24:05 10° 150° (SSE) 2,154 6.2 -24.6°
Sets 05:26:24 0° 152° (SSE) 3,068 7.0 -24.2°
